OPS 4682 DEB, 19185

Orbit data source: Space-Track

OPS 4682 DEB, 19185 is space debris in LEO originally from a launch on Sat, 03 Apr 1965 UTC launched from the Air Force Western Test Range (AFWTR). Debris objects in space refer to the collection of defunct objects orbiting the Earth. Examples of debris include non-operational satellites, rocket bodies, and fragments generated from explosions, collisions, or faulty payload assembly.

Loading next visibility...
Identifier
19185, 1965-027AR
Orbit
LEO
Country
Flag of USUS
Related business
Manufacturer
Unknown
Mission
Spacecraft
Bus & Motor
Unknown
Mass
Unknown
Launch date (UTC)
1965-04-03 (61 years ago)
Launch vehicle
Unknown
Launch site
Air Force Western Test Range (AFWTR)
Object type
Payload
Rocket body
Debris
Shape & HBR
Unknown shape, 0.1 m
Radar Cross Section
Small (<0.1 m²)

Expand to show TLE details & history
Last TLE update: 19 hours ago

TLE from 19 hours ago
0 OPS 4682 DEB
1 19185U 65027AR  25340.80810840  .00000063  00000-0  19272-3 0  9990
2 19185  90.2442   0.0467 0037795 217.3993 324.5347 12.97594489925157
Epoch: 2025-12-06T19:23Z
TLE epoch observation values (Epoch: 2025-12-06T19:23:40.565Z)
Latitude
-1.80431°
Longitude
173.28949°
Altitude
1,251.143 km
Speed
7.241 km/s
True Right ascension
12h 00m 09s
True Declination
-1° 47' 39"
Sunlit
Object was in daylight at epoch
Visualization orbit readout
Latitude
Unknown
Longitude
Unknown
Altitude
Unknown
Speed
Unknown
Apparent Right ascension
Unknown
Apparent Declination
Unknown
Sunlit
N/A
Visualization observer readout
Local Sidereal Time
12:43:41
Azimuth
Unknown
Elevation
Unknown
Doppler factor
Unknown
Orbital elements
Apogee altitude
1,297.558 km
Perigee altitude
1,239.756 km
Semi-major axis
7,646.794 km
Eccentricity
0.00378
Inclination
90.2442°
RAAN
0.0467°
Arg. of periapsis
217.3993°
True anomaly
324.28244°
Mean anomaly
324.5347°
Eccentric anomaly
324.40867°
Mean motion
3.24582 °/min
Orbital period
110.91 mins
BSTAR
0.00019272
Loading maneuver chart data...
Computing Atmospheric mass density...
Loading historical data...
Loading historical data...
Loading historical data...
Loading historical data...
Loading historical data...
Loading historical data...
Loading historical data...

Documentation

Showing up to 5 results
|